www.pogodaiklimat.ru

Погода и климат >> Архив погоды >> Пакистан >> Рохри


ПОГОДА в Рохри

  • Прогноз погоды в Рохри
  • Монитор погоды в Рохри

АРХИВ ПОГОДЫ в Рохри

Время (UTC), дата Ветер
(напр.,м/с)
 
Видим.   Явления Облачность Т
(С)
Тd
(С)
f
(%)
Тe
(С)
Тes
(С)
Комфортность P
(гПа)
Po
(гПа)
Тmin
(С)
Tmax
(С)
R
(мм)
R24
(мм)
S
(см)
15 14.05 СВ 1 4000 м ясно +36.0 +22.4 46 +45 +45 опасность
перегрева
999.8 1000.0
18 14.05 СЗ 1 4000 м мгла 10/5 1200 м
[Sc As trans]
+32.0 +18.2 44 +37 +37 очень
душно
992.9 995.4 0.0
21 14.05 СЗ 1 4000 м мгла 10/5 1200 м
[Sc As trans]
+29.5 +18.8 53 +35 +35 очень
душно
1002.0 994.3
00 15.05 СЗ 1 4000 м мгла 3/0
[As trans]
+25.0 +19.6 72 +30 +30 душно 1003.2 995.5
03 15.05 ЮЗ 1 4000 м мгла 5/0
[Ac trans]
+27.0 +19.3 63 +33 +37 очень
душно
1004.0 996.4 +24.1
06 15.05 штиль 0 4000 м мгла ясно +33.5 +21.9 51 +42 +68 опасность
перегрева
1005.0 1000.0
09 15.05 ЮЗ 1 4000 м мгла 8/4 1200 м
[Sc As trans]
+35.0 +22.9 50 +45 +53 опасность
перегрева
1004.0 996.5
12 15.05 ЮЗ 1 4000 м мгла 5/0
[As trans]
+35.0 +23.7 52 +46 +50 опасность
перегрева
1002.8 995.4 +36.5
15 15.05 СЗ 1 4000 м мгла 4/0
[As trans]
+31.0 +20.6 54 +38 +38 очень
душно
1004.0 1000.0
18 15.05 СЗ 1 4000 м мгла ясно +29.5 +19.7 56 +36 +36 очень
душно
1005.5 997.9
21 15.05 СЗ 1 4000 м мгла ясно +27.0 +18.5 60 +32 +32 очень
душно
1004.6 996.9
00 16.05 ЮВ 1 4000 м мгла 10/5 1200 м
[Sc As trans]
+27.5 +19.0 60 +33 +33 очень
душно
1005.6 998.0
03 16.05 ЮЗ 2 4000 м мгла 5/0
[As trans]
+28.0 +20.5 64 +35 +39 очень
душно
1006.3 998.7 +26.5
06 16.05 СВ 2 4000 м мгла 10/5 1200 м
[Sc As trans]
+28.0 +20.5 64 +35 +39 очень
душно
1008.7 1001.1 0.0
09 16.05 СВ 1 4000 м мгла ясно +34.0 +20.8 46 +41 +65 опасность
перегрева
1006.7 1000.0
12 16.05 СВ 1 4000 м мгла 4/0
[As trans]
+34.5 +20.5 44 +41 +46 опасность
перегрева
1005.2 997.8 +35.5
15 16.05 СЗ 3 4000 м мгла 10/5 1200 м
[Sc As trans]
+28.0 +18.8 57 +33 +33 очень
душно
1005.2 1000.0
18 16.05 СЗ 1 4000 м мгла 10/5 1200 м
[Sc As trans]
+26.5 +19.6 66 +32 +32 очень
душно
1007.8 1000.2
21 16.05 ЮЗ 1 4000 м мгла 10/5 1200 м
[Sc As trans]
+24.5 +18.2 68 +29 +29 душно 1006.3 998.5
00 17.05 ЮЗ 1 4000 м мгла 10/5 1200 м
[Sc As trans]
+25.0 +19.6 72 +30 +30 душно 1006.6 998.9
03 17.05 ЮЗ 1 4000 м мгла 10/5 1200 м
[Sc As trans]
+26.0 +20.7 73 +33 +34 очень
душно
1007.6 1000.0 +24.0
06 17.05 СЗ 1 4000 м мгла ясно +32.0 +20.7 51 +39 +63 опасность
солнечного
удара
1009.0 1001.5
09 17.05 СЗ 1 4000 м ясно +35.0 +18.3 37 +39 +61 опасность
солнечного
удара
1007.1 1000.0
12 17.05 ЮЗ 1 4000 м ясно +36.0 +17.7 34 +39 +45 очень
душно
1004.1 996.7 +37.5
15 17.05 ЮЗ 1 4000 м ясно +32.0 +17.2 41 +36 +36 очень
душно
1005.0 1000.0
18 17.05 ЮЗ 1 4000 м мгла ясно +30.5 +18.2 48 +35 +35 очень
душно
1005.7 998.1
21 17.05 ЮЗ 1 4000 м мгла 5/0
[As trans]
+28.0 +19.6 60 +34 +34 очень
душно
1004.7 1000.0
00 18.05 штиль 0 4000 м мгла ясно +26.0 +19.1 66 +31 +31 очень
душно
1005.4 997.8
03 18.05 штиль 0 4000 м мгла ясно +28.5 +20.2 61 +35 +43 очень
душно
1006.3 998.7
06 18.05 В 1 4000 м ясно +35.0 +20.2 42 +41 +64 опасность
перегрева
1007.0 999.6
09 18.05 штиль 0 10 км ясно +39.0 +18.9 31 +43 +69 опасность
перегрева
1005.1 1000.0
12 18.05 СВ 1 10 км ясно +40.0 +17.3 27 +43 +49 опасность
перегрева
1003.4 996.1 +41.1
15 18.05 СВ 1 4000 м ясно +36.5 +18.4 35 +41 +41 опасность
перегрева
1004.4 1000.0
18 18.05 штиль 0 4000 м мгла ясно +34.0 +20.5 45 +41 +41 опасность
перегрева
1005.0 997.6
21 18.05 СВ 1 4000 м мгла ясно +32.0 +20.9 52 +39 +39 очень
душно
1004.0 1000.0
00 19.05 штиль 0 4000 м мгла ясно +28.5 +20.2 61 +35 +35 очень
душно
1005.0 997.4
03 19.05 штиль 0 4000 м мгла ясно +31.0 +20.6 54 +38 +46 очень
душно
1005.5 998.0
06 19.05 Ю 1 4000 м 8/4 1200 м
[Sc As trans]
+36.5 +21.2 41 +44 +52 опасность
перегрева
1006.0 998.6
09 19.05 ЮВ 1 10 км ясно +41.0 +18.8 28 +45 +69 опасность
перегрева
1004.5 1000.0
12 19.05 СЗ 2 10 км 4/0
[Ac trans]
+42.0 +18.1 25 +45 +49 опасность
перегрева
1002.4 995.2 +43.0
15 19.05 штиль 0 4000 м ясно +37.0 +21.0 40 +44 +44 опасность
перегрева
1003.5 1000.0
18 19.05 штиль 0 4000 м 5/0
[As trans]
+35.0 +20.2 42 +41 +41 опасность
перегрева
1004.8 997.4
21 19.05 штиль 0 4000 м мгла 5/0
[As trans]
+32.0 +20.9 52 +39 +39 очень
душно
1003.8 1000.0
00 20.05 штиль 0 4000 м мгла ясно +30.0 +21.1 59 +38 +38 очень
душно
1005.3 997.7
03 20.05 СВ 1 4000 м мгла ясно +30.0 +21.1 59 +38 +44 очень
душно
1006.7 999.1
06 20.05 СВ 1 4000 м ясно +35.0 +20.2 42 +41 +64 опасность
перегрева
1008.3 1000.0
09 20.05 СВ 1 10 км ясно +38.0 +21.4 38 +45 +69 опасность
перегрева
1006.1 1000.0
12 20.05 СВ 2 10 км 10/5 1200 м
[Sc As trans]
+39.5 +19.6 32 +45 +45 опасность
перегрева
1004.2 996.9 +41.5
15 20.05 СВ 1 4000 м мгла ясно +35.0 +21.1 44 +42 +42 опасность
перегрева
1005.0 1000.0
18 20.05 СВ 1 4000 м мгла 4/0
[Ac trans]
+32.5 +22.4 55 +42 +42 опасность
перегрева
1005.9 998.4
21 20.05 СВ 1 4000 м мгла 5/0
[Ac trans]
+30.0 +22.0 62 +39 +39 очень
душно
1005.0 1000.0
00 21.05 СВ 1 4000 м мгла 5/0
[Ac trans]
+30.0 +21.1 59 +38 +38 очень
душно
1005.4 997.8
03 21.05 СВ 1 4000 м мгла ясно +32.0 +20.9 52 +39 +46 очень
душно
1005.8 998.3
06 21.05 СВ 1 4000 м мгла 5/0
[Ac trans]
+36.0 +20.4 40 +42 +59 опасность
перегрева
1007.4 1000.0
09 21.05 СВ 1 10 км ясно +41.0 +18.8 28 +45 +69 опасность
перегрева
1004.8 1000.0
12 21.05 СВ 1 10 км 8/0
[As trans Ci sp]
+41.0 +18.8 28 +45 +49 опасность
перегрева
1002.6 995.3 +42.5

 

Местоположение метеостанции Рохри (Пакистан): широта 27.67 долгота 68.90 высота над уровнем моря 68 м.

В архиве по умолчанию представлена погода в Рохри за последнюю неделю. Архивные данные за месяц целиком и за предыдущие месяцы, начиная с января 2011 года, Вы можете получить, выбрав интересующий диапазон дат из раскрывающегося списка и нажав кнопку "Ввод!".


*Определитесь, кто Вы:
робот инопланетянин человек

Внимание! Время в таблицах - всемирное. Для получения местного времени необходимо прибавить поправку, которая равна 5 ч.

Смотрите также архив погоды в соседних городах и на ближайших метеорологических станциях:

Погода в Суккуре (Пакистан) (14 км)
Погода в Ларкане (Пакистан) (73 км)
Погода в Джейкобабаде (Пакистан) (82 км)
Погода в Мохенджо-Даро (Пакистан) (85 км)
Погода в Пад Идан (Пакистан) (119 км)
Погода в Рахим Яр Хан (Пакистан) (163 км)
Погода в Навабшахе (Пакистан) (166 км)
Погода в Ханпуре (Пакистан) (206 км)
Погода в Джайсалмере (Раджастхан, Индия) (217 км)
Погода в Хуздаре (Пакистан) (224 км)

Пояснения к столбцам:

Ветер - указаны скорость ветра в м/с - средняя за 10 мин, порывы в срок и между сроками (в фигурных скобках) и направление, откуда дует ветер: С - северный, СВ - северо-восточный, В - восточный, ЮВ - юго-восточный, Ю - южный, ЮЗ - юго-западный, З - западный, СЗ - северо-западный.
Видимость - горизонтальная дальность видимости в метрах или километрах. При видимости от 1 до 10 км при отсутствии осадков обычно наблюдается дымка, при ухудшении видимости до 1 км и менее - туман. В сухую погоду видимость может ухудшаться дымом, пылью или мглою.
Явления - указаны атмосферные явления, наблюдавшиеся в срок или в последний час перед сроком; фигурными скобками обозначены явления, наблюдавшиеся между сроками (за 1-3 часа до срока); квадратными скобками обозначены град или гололедные отложения с указанием их диаметра в мм.
Облачность - указаны через наклонную черту общая и нижняя облачность в баллах и высота нижней границы облаков в метрах; квадратными скобками обозначены формы облаков: Ci - перистые, Cs - перисто-слоистые, Cc - перисто-кучевые, Ac - высококучевые, As - высокослоистые, Sc - слоисто-кучевые, Ns - слоисто-дождевые, Cu - кучевые, Cb - кучево-дождевые. Подробнее классификацию облаков см. в Атласе облаков (PDF).
T - Температура воздуха - температура, измеренная на высоте 2 м над землей.
Td - Температура точки росы - температура, при понижении до которой содержащийся в воздухе водяной пар достигнет насыщения.
f - Относительная влажность воздуха - влажноcть воздуха, измеренная на высоте 2 м над землей.
Te - Эффективная температура - температура, которую ощущает одетый по сезону человек в тени. Характеристика душности погоды. При расчете учитывается влияние влажности воздуха и скорости ветра на теплоощущения человека.
Tes - Эффективная температура на солнце - температура, которую ощущает человек, с поправкой на солнечный нагрев. Характеристика знойности погоды. Зависит от высоты солнца над горизонтом, облачности и скорости ветра. Ночью, в пасмурную погоду, а также при ветре 12 м/с и более поправка равна нулю.
P - Атмосферное давление - приведенное к уровню моря атмосферное давление.
Po - Атмосферное давление - измеренное на уровне метеостанции атмосферное давление.
Tmin - Минимальная температура - минимум температуры воздуха на высоте 2 м над землей.
Tmax - Максимальная температура - максимум температуры воздуха на высоте 2 м над землей.
R - Количество осадков - Количество выпавших осадков за период времени, мм. При наведении курсора мыши на число - период времени, за который выпало указанное количество осадков.
R24 - Количество осадков - Количество выпавших осадков за 24 часа, мм.
S - Снежный покров - Высота снежного покрова, см. При наведении курсора мыши на число - состояние снежного покрова и степень покрытия местности в баллах.